Location: Columbia
(38.9520°N, 92.3340°W)
Time: 09:36:13
(UTC-05:00)

Daily predictions for brighter satellites

Satellite Brightness Start Highest point End
(mag) Time Altitude Azimuth Time Altitude Azimuth Time Altitude Azimuth
Resurs 01 Rocket 1.9 20:49:41 10° S 20:54:05 72° W 20:58:31 10° NNW
Cosmos 1862 Rocket 3.6 20:53:23 10° N 20:57:52 68° E 21:02:19 10° SSE
CZ-2D R/B 4.1 20:55:35 10° S 20:59:23 53° W 21:03:13 10° NNW
Helios 1A 3.6 20:57:01 10° SE 21:00:55 39° ENE 21:04:50 10° N
Timation 2 Rocket 4.1 20:55:16 10° NNW 21:01:38 88° ENE 21:08:15 10° SSE
Cosmos 1892 3.0 20:58:21 10° SSE 21:02:03 47° E 21:05:45 10° NNE
COSMOS 2455 3.1 20:59:07 10° S 21:04:46 45° ESE 21:10:27 10° NE
ERS-1 Rocket 4.1 21:03:53 10° SE 21:08:07 28° ENE 21:12:22 10° N
Cosmos 1816 Rocket 4.5 21:03:44 10° S 21:09:53 77° E 21:16:02 10° N
Cosmos 1943 Rocket 3.3 21:06:22 10° SSE 21:10:33 22° E 21:14:42 10° NE
Spot 2 Rocket 4.1 21:05:41 10° S 21:10:42 59° WSW 21:15:46 10° NNW
NOSS 3-2 (A) 3.9 21:07:19 10° SW 21:13:14 68° NW 21:19:46 10° NNE
Cosmos 2346 Rocket 4.4 21:11:56 10° S 21:17:54 68° E 21:23:55 10° NNE
SJ-11-01 4.3 21:13:58 10° SSE 21:18:41 80° ENE 21:23:25 10° N
Milstar 3 4.3 21:09:45 10° SW 21:20:52 32° S 21:27:31 11° ESE
USA 215 3.9 21:19:43 10° ESE 21:25:57 48° NE 21:32:10 10° NW
Okean 1-7 3.9 21:22:12 10° NNE 21:26:13 33° ENE 21:29:17 15° SE
Lacrosse 5 rocket 1.1 21:23:34 10° SSW 21:27:01 50° SE 21:30:32 10° NE
Cosmos 2369 Rocket 2.2 21:22:31 10° S 21:28:01 59° ESE 21:33:37 10° NNE
Cosmos 1939 Rocket 3.3 21:27:22 10° S 21:31:29 67° WSW 21:35:36 10° NNW
Cosmos 1346 Rocket 2.8 21:27:45 10° N 21:31:45 89° WSW 21:35:44 10° S
NOSS 3-2 (C) 4.0 21:27:23 10° SW 21:33:18 65° NW 21:39:50 10° NNE
Cosmos 1703 Rocket 3.6 21:30:26 10° N 21:34:50 63° E 21:38:36 13° SSE
Cosmos 1606 3.8 21:32:20 10° NNE 21:35:37 27° ENE 21:37:21 19° ESE
DNEPR-1 R/B 4.3 21:31:13 10° S 21:36:19 41° ESE 21:40:41 10° NE
Envisat 3.9 21:32:46 10° S 21:37:39 48° W 21:42:34 10° NNW
ISS -3.6 21:38:37 10° WSW 21:41:51 72° NW 21:45:06 10° NE
SAR-Lupe-4 3.5 21:41:56 17° SSE 21:44:34 81° ENE 21:48:10 10° N
Cosmos 372 Rocket 4.4 21:40:58 10° S 21:45:44 40° ESE 21:50:30 10° NNE
YAOGAN 6 3.3 21:47:13 10° S 21:50:49 52° W 21:54:27 10° NNW
CENTAUR R/B 2.4 21:45:21 10° SSW 21:51:08 60° ESE 21:57:41 10° NE
Terra 3.8 21:49:48 12° E 21:51:33 14° ENE 21:53:59 10° NNE
Cosmos 1125 Rocket 3.5 21:46:27 10° S 21:51:34 57° ESE 21:56:42 10° NNE
Cosmos 1869 Rocket 3.5 21:48:05 10° S 21:52:24 87° ESE 21:56:47 10° N
ATLAS 5 CENTAUR R/B 3.2 21:49:51 10° NNW 21:55:26 39° NE 21:59:28 19° ESE
Tiangong 2 1.2 21:53:36 10° WNW 21:56:48 64° SSW 21:57:47 38° SE
Meteor 2-6 Rocket 4.4 21:52:59 10° N 21:58:52 61° ENE 22:02:43 22° SSE
MetOp-B 4.1 21:56:36 20° SSE 22:00:18 72° ENE 22:05:38 10° N
SPOT 5 3.4 21:58:43 24° SE 22:01:47 52° ENE 22:06:55 10° N
GPS 2-04 Rocket1 2.7 22:00:57 10° WSW 22:04:30 49° S 22:05:17 40° SE
Cosmos 2221 Rocket 3.6 22:00:38 10° N 22:05:05 85° W 22:07:56 22° S
Aureole 3 3.0 22:03:46 17° SSW 22:06:00 64° W 22:08:58 10° N
SAR-Lupe-1 4.4 22:03:56 23° S 22:06:01 62° WSW 22:09:34 10° NNW
Cosmos 2084 3.1 22:03:44 10° NW 22:07:35 86° WSW 22:09:06 36° SSE
Cosmos 1782 2.7 22:04:01 10° N 22:08:02 85° E 22:09:53 31° S
Helios 1B rocket 4.1 22:04:24 10° N 22:08:08 35° WNW 22:11:52 10° SW
ARGOS 3.1 22:06:21 25° SSE 22:09:33 72° ENE 22:14:54 10° N
Cosmos 1656 Rocket 4.4 22:10:03 28° SE 22:11:08 31° ESE 22:15:54 10° NE
H-2A R/B 2.4 22:13:15 30° SE 22:15:44 54° ENE 22:20:57 10° N
Cosmos 1408 2.9 22:16:29 21° SSW 22:18:51 65° W 22:22:34 10° N
Lacrosse 4 Rocket 2.2 22:15:12 10° NNW 22:19:29 41° ENE 22:20:44 33° E
Cosmos 1825 2.5 22:20:37 22° SSW 22:22:55 63° W 22:26:41 10° N
Cosmos 1674 Rocket 4.4 22:20:37 10° NNE 22:24:30 32° ENE 22:24:54 31° E
Cosmos 1862 3.2 22:24:26 47° SSE 22:25:29 72° E 22:29:26 10° NNE
Shenzhou-11 Module 3.6 22:24:53 10° W 22:27:00 25° SW 22:27:00 25° SW
Cosmos 1092 Rocket 4.4 22:27:20 33° SE 22:29:11 41° E 22:34:52 10° NNE
Nadezhda 4 Rocket 4.0 22:27:53 30° SSE 22:30:57 62° E 22:37:03 10° NNE
YAOGAN 11 4.1 22:30:20 40° S 22:31:59 85° WSW 22:36:31 10° NNW
Cosmos 158 Rocket 3.8 22:28:43 10° NNW 22:33:37 80° WSW 22:35:18 41° S
H-2A R/B 3.5 22:37:07 21° ENE 22:37:07 21° ENE 22:40:15 10° NNE
Cosmos 2219 4.5 22:36:59 10° N 22:41:53 28° ENE 22:43:36 24° E
ERS-1 Rocket 4.4 22:43:27 16° SSW 22:46:46 32° W 22:51:15 10° NW
Cosmos 2344 3.6 22:45:11 10° SW 22:52:51 85° WNW 23:01:18 10° NNE
Cosmos 1943 Rocket 3.1 22:48:31 10° SW 22:53:54 47° WNW 22:59:16 10° NNE
Okean 3 4.1 22:52:01 10° N 22:55:33 41° ENE 22:55:33 41° ENE
Cosmos 1908 Rocket 4.0 22:58:34 49° ENE 22:58:34 49° ENE 23:02:26 10° NNE
IGS 5A 3.6 22:58:27 58° ENE 22:58:27 58° ENE 23:02:20 10° N
Cosmos 1340 3.9 22:56:50 10° NNW 23:00:16 33° W 23:00:49 31° WSW
DMSP B5D2-2 4.1 22:59:04 10° N 23:04:17 79° WNW 23:06:00 44° SSW
Lacrosse 5 rocket 3.9 23:03:51 10° W 23:06:26 18° NNW 23:09:04 10° NNE
USA 215 3.6 23:06:57 40° S 23:08:52 51° SW 23:15:15 10° NW
Landsat 7 4.0 23:13:02 56° SW 23:13:36 61° W 23:18:20 10° NNW
Cosmos 2251 Rocket 3.6 23:08:43 10° N 23:13:54 60° ENE 23:14:13 59° E
SPOT 1/Viking Rocket 4.3 23:12:30 35° SW 23:13:59 44° W 23:18:57 10° NNW
deb Chang Zheng 4 4.3 23:14:18 10° NNE 23:17:39 45° NE 23:17:39 45° NE
ISS -0.6 23:16:52 10° NW 23:18:47 15° NNW 23:20:44 10° NNE
GEOS 3 Rocket 3.4 23:19:14 74° SSE 23:19:43 88° WSW 23:24:58 10° NW
Cosmos 2195 Rocket 4.4 23:19:00 59° SSE 23:20:11 74° E 23:26:30 10° N
Cosmos 1782 Rocket 4.3 23:26:27 44° NE 23:26:27 44° NE 23:29:39 10° NNE
Sich 1 Rocket 3.8 23:27:55 69° NNW 23:27:55 69° NNW 23:31:54 10° N
Terra 2.0 23:28:41 62° WSW 23:28:45 62° W 23:33:28 10° NNW
Cosmos 1655 Rocket 4.0 23:29:17 57° ESE 23:29:37 57° E 23:35:42 10° NNE
Cosmos 2297 Rocket 3.9 23:27:50 10° N 23:32:02 21° NE 23:33:14 19° ENE
ARGOS Delta rocket 4.4 23:28:30 10° NNE 23:31:45 44° NE 23:31:45 44° NE
ATLAS 5 CENTAUR R/B 3.2 23:34:31 10° NW 23:40:13 40° WSW 23:41:01 39° SW
CENTAUR R/B 4.5 23:37:03 10° W 23:42:18 28° NW 23:48:10 10° NNE
Cosmos 1975 Rocket 3.8 23:44:30 10° N 23:47:55 52° N 23:47:55 52° N
Cosmos 2026 Rocket 4.0 23:49:05 64° SW 23:49:57 75° W 23:56:13 10° N
Cosmos 1867 3.7 23:48:37 10° NW 23:53:35 64° W 23:53:35 64° W
H-2A R/B 4.1 23:53:54 17° WSW 23:55:25 18° W 23:59:04 10° NW
